星链-3449 (STARLINK-3449 )

导读

STARLINK-3449是美国太空探索技术公司Starlink星链卫星互联网项目的卫星,于2022年2月21日发射入轨,属于星链低轨卫星星座组网的组成部分,旨在为全球范围提供高速低延迟宽带互联网服务,运行在近地轨道,承担全球网络覆盖补网及服务扩容任务。

Basic Information
目录编号:
51745
目录名称:
STARLINK-3449
国际标识:
2022-016AH
轨道中心:
EARTH
卫星名称:
星链-3449
卫星全名:
星链-3449 (STARLINK-3449 )
卫星状态:
在轨 (已飞行1577 天)
发射日期:
2022-02-21 UTC
国别 :
美国 (US)
星等 :
--
Orbit Information
数据来源 国际轨道数据 AOE轨道数据
星历时间 2026-06-17T18:58:49+0800
7小时前
查看轨道信息
2026-06-13T10:00:00+0800
4天前
查看轨道信息
半长轴 6917.903km 6917.866km
偏心率 0.0001191 0.0001497
轨道倾角 53.159° 53.155°
近地点辐角 85.226° 90.591°
升交点赤经 231.145° 250.802°
平近点角 274.887° 256.851°
近地点 538.942km 538.693km
远地点 540.59km 540.765km
周期 95.438分钟 95.437分钟
每日圈数 15.088327 15.088448
Detailed Information
固有亮度:
5
最大亮度:
2.5
卫星平台:
Starlink v1.5
覆盖范围:
全球
运营商:
太空探索技术公司
运营商所在国:
美国
制造商(研发单位):
太空探索技术公司
制造商所在国:
美国
使用方式:
暂无
Satellite Introduction
星链(Starlink)计划是由太空探索技术公司(SpaceX)提出的一个巨型低轨卫星互联网星座项目,计划在2019年至2024年间在太空搭建由约1.2万颗卫星组成的“星链”网络,其中1584颗将部署在地球上空550千米处的近地轨道,并从2020年开始工作。该卫星仍在工作。
2D Orbit Map
3D Orbit Map
Orbit Altitude Analysis Chart
Orbit Inclination Analysis Chart
Orbit Comprehensive Analysis Chart
View Comprehensive Chart